Simultaneous Nadir Overpasses (SNOs) Predictions

Prediction of SNOs between LANDSAT-8 and METOP-B Satellite Orbit:

Table of predicted SNOs for the next 14.0 days since TLE Epoch: 3/12/2022
Index Date (LANDSAT-8) Time (LANDSAT-8) Lat,Lon (LANDSAT-8) SZA (LANDSAT-8 ) Date (METOP-B) Time (METOP-B) Lat,Lon (METOP-B) SZA (METOP-B ) Distance(km) Time Diff (sec)
1 03/14/2022 15:27:13 -81.17, 168.36 94.65 03/14/2022 15:26:43 -81.16, 168.19 94.68 3.21 30
2 03/14/2022 16:16:39 81.17, -23.92 85.35 03/14/2022 16:17:22 81.17, -23.96 85.37 0.70 43
3 03/17/2022 11:01:27 -81.16,-125.36 95.76 03/17/2022 11:01:04 -81.15,-125.43 95.78 1.22 23
4 03/17/2022 11:50:52 81.18, 42.70 84.29 03/17/2022 11:51:42 81.18, 42.80 84.32 1.82 50
5 03/20/2022 06:35:40 -81.16, -58.80 96.83 03/20/2022 06:35:24 -81.17, -58.70 96.83 1.78 16
6 03/20/2022 07:25:05 81.19, 109.22 83.21 03/20/2022 07:26:03 81.18, 109.14 83.23 1.40 58
7 03/23/2022 02:09:52 -81.16, 7.65 97.92 03/23/2022 02:09:44 -81.16, 7.61 97.93 0.82 8
8 03/23/2022 02:59:17 81.19, 175.65 82.13 03/23/2022 03:00:22 81.19, 175.83 82.17 3.08 65
9 03/25/2022 20:54:40 81.11, -94.39 80.89 03/25/2022 20:53:26 81.13, -94.28 80.89 2.95 74
10 03/25/2022 21:44:05 -81.16, 74.02 99.01 03/25/2022 21:44:05 -81.16, 73.88 99.03 2.41 0



Historial Predications of SNOs between LANDSAT-8 and METOP-B
